STARLINK-1762, 46342

Orbit data source: Space-Track

STARLINK-1762, 46342 is a payload satellite owned by SpaceX/Seattle (US) in LEO that was launched on Thu, 03 Sep 2020 UTC via an FALCON 9 launch vehicle from the Air Force Eastern Test Range (AFETR). Payload-class satellites include a variety of spacecraft equipped with specific instruments for various scientific and technological missions. These include communications satellites like Starlink; space stations such as the ISS; scientific satellites like the Hubble; Earth observation satellites from companies like Planet Labs, Umbra, and HawkEye 360; GPS; miniature CubeSats for education and research; and military/defense satellites.

Loading next visibility...
Identifier
46342, 2020-062T
Orbit
LEO
Country
Flag of USUS
Related business
Manufacturer
SpaceX/Seattle
Mission
Operational Commercial Communications
Bus & Motor
STARLINK, Unknown motor
Mass
260 kg wet, ~248 kg dry
Launch date (UTC)
2020-09-03 (5 years ago)
Launch vehicle
FALCON 9
Launch site
Air Force Eastern Test Range (AFETR)
Object type
Payload
Rocket body
Debris
Shape & HBR
Box + 1 Pan, 10.1 m
Radar Cross Section
13.562 m², Large (>1 m²)

Expand to show TLE details & history
Last TLE update: 11 hours ago

TLE from 11 hours ago
0 STARLINK-1762
1 46342U 20062T   25286.82117982  .00001912  00000-0  14720-3 0  9990
2 46342  53.0538 315.9393 0001483  71.9501 288.1649 15.06407994282170
Epoch: 2025-10-13T19:42Z
TLE epoch observation values (Epoch: 2025-10-13T19:42:29.936Z)
Latitude
-0.00006°
Longitude
-2.30394°
Altitude
547.746 km
Speed
7.59 km/s
True Right ascension
21h 03m 45s
True Declination
0° 00' 00"
Sunlit
Object was in full shadow at epoch
Visualization orbit readout
Latitude
Unknown
Longitude
Unknown
Altitude
Unknown
Speed
Unknown
Apparent Right ascension
Unknown
Apparent Declination
Unknown
Sunlit
N/A
Visualization observer readout
Local Sidereal Time
01:25:01
Azimuth
Unknown
Elevation
Unknown
Doppler factor
Unknown
Orbital elements
Apogee altitude
548.485 km
Perigee altitude
546.431 km
Semi-major axis
6,925.595 km
Eccentricity
0.00015
Inclination
53.0538°
RAAN
315.9393°
Arg. of periapsis
71.9501°
True anomaly
288.14875°
Mean anomaly
288.1649°
Eccentric anomaly
288.15683°
Mean motion
3.7658 °/min
Orbital period
95.6 mins
BSTAR
0.0001472
Loading maneuver chart data...
Computing Atmospheric mass density...
Loading historical data...
Loading historical data...
Loading historical data...
Loading historical data...
Loading historical data...
Loading historical data...
Loading historical data...

Documentation

Showing up to 5 results
|